FW6805 Weather Reports


time (UTC)temp
C
wind
direction
speed
KPH
gust
KPH
rain 1hr
cm
rain 24hr
cm
rain mn
cm
humidity
%
barometer
mb
20260507115046 -1 0.0 0.0 0.00 0.00 0.00 76 935.3
20260507114039 -1 158 0.0 1.6 0.00 0.00 0.00 73 935.3
20260507113051 -2 0.0 0.0 0.00 0.00 0.00 69 935.2
20260507112030 -1 112 3.2 4.8 0.00 0.00 0.00 69 935.3
20260507111015 -1 107 1.6 4.8 0.00 0.00 0.00 69 935.2
20260507110041 -1 117 1.6 4.8 0.00 0.00 0.00 68 935.1
20260507105034 -1 131 1.6 1.6 0.00 0.00 0.00 70 935.2
20260507104026 0 115 1.6 4.8 0.00 0.00 0.00 76 935.1
20260507103019 0 153 0.0 1.6 0.00 0.00 0.00 79 935.1
20260507102042 0 132 0.0 1.6 0.00 0.00 0.00 77 935.1
20260507101035 0 155 1.6 1.6 0.00 0.00 0.00 74 935.2
20260507100027 1 163 0.0 1.6 0.00 0.00 0.00 71 935.2
20260507095020 1 0.0 0.0 0.00 0.00 0.00 68 935.3
20260507094104 1 162 0.0 1.6 0.00 0.00 0.00 67 935.3
20260507093037 1 169 1.6 4.8 0.00 0.00 0.00 67 935.2
20260507092028 0 0.0 0.0 0.00 0.00 0.00 66 935.2
20260507091042 0 0.0 0.0 0.00 0.00 0.00 67 935.3
20260507090045 1 168 1.6 4.8 0.00 0.00 0.00 66 935.3
20260507085038 0 165 0.0 1.6 0.00 0.00 0.00 71 935.3
20260507084031 1 0.0 0.0 0.00 0.00 0.00 73 935.3
20260507083023 1 155 0.0 1.6 0.00 0.00 0.00 72 935.3
20260507082048 0 0.0 0.0 0.00 0.00 0.00 69 935.2
20260507081039 1 0.0 0.0 0.00 0.00 0.00 71 935.2
20260507080033 1 0.0 0.0 0.00 0.00 0.00 68 935.3
20260507075024 1 0.0 0.0 0.00 0.00 0.00 67 935.3
20260507074038 1 153 1.6 4.8 0.00 0.00 0.00 66 935.3
20260507073041 1 143 0.0 1.6 0.00 0.00 0.00 66 935.4
20260507072054 1 143 1.6 4.8 0.00 0.00 0.00 64 935.5
20260507071026 1 144 1.6 1.6 0.00 0.00 0.00 61 935.6
20260507070100 1 133 1.6 4.8 0.00 0.00 0.00 62 935.6
20260507065042 1 142 0.0 1.6 0.00 0.00 0.00 65 935.7
20260507064035 1 155 1.6 4.8 0.00 0.00 0.00 65 935.7
20260507063027 1 144 0.0 4.8 0.00 0.00 0.00 66 935.8
20260507062020 1 138 0.0 1.6 0.00 0.00 0.00 65 935.7
20260507061155 1 143 0.0 1.6 0.00 0.00 0.00 64 935.6
20260507060031 1 136 0.0 1.6 0.00 0.00 0.00 62 935.7
20260507055024 1 130 1.6 4.8 0.00 0.00 0.00 65 935.7
20260507054048 1 137 1.6 1.6 0.00 0.00 0.00 62 935.7
20260507053101 1 141 0.0 1.6 0.00 0.00 0.00 63 935.8
20260507052032 1 136 1.6 1.6 0.00 0.00 0.00 60 935.9
20260507051025 1 139 0.0 1.6 0.00 0.00 0.00 62 935.8
20260507050017 1 0.0 0.0 0.00 0.00 0.00 69 935.9
20260507045042 2 152 0.0 1.6 0.00 0.00 0.00 67 935.9
20260507044035 2 157 0.0 1.6 0.00 0.00 0.00 66 936.0
20260507043027 2 156 0.0 1.6 0.00 0.00 0.00 67 936.0
20260507042040 3 159 1.6 4.8 0.00 0.00 0.00 64 936.0
20260507041044 3 0.0 0.0 0.00 0.00 0.00 62 936.2
20260507040037 3 147 0.0 1.6 0.00 0.00 0.00 59 936.2
20260507035049 3 0.0 0.0 0.00 0.00 0.00 57 936.2
20260507034042 4 145 0.0 4.8 0.00 0.00 0.00 55 936.2
20260507033045 5 129 0.0 6.4 0.00 0.00 0.00 55 936.2
20260507032039 5 109 3.2 8.0 0.00 0.00 0.00 53 936.1
20260507031050 5 96 4.8 6.4 0.00 0.00 0.00 50 936.2
20260507030023 6 107 4.8 8.0 0.00 0.00 0.00 49 936.1
20260507025046 6 94 6.4 16.1 0.00 0.00 0.00 47 936.0
20260507024104 7 87 8.0 12.9 0.00 0.00 0.00 44 936.1
20260507023031 7 92 4.8 6.4 0.00 0.00 0.00 46 936.0
20260507022024 7 87 6.4 11.3 0.00 0.00 0.00 44 936.0
20260507021016 7 77 6.4 11.3 0.00 0.00 0.00 42 936.0
20260507020041 8 88 4.8 11.3 0.00 0.00 0.00 41 936.0
20260507015032 8 94 4.8 11.3 0.00 0.00 0.00 40 936.0
20260507014026 9 78 8.0 16.1 0.00 0.00 0.00 39 936.0
20260507013019 10 85 6.4 12.9 0.00 0.00 0.00 38 936.0
20260507012043 10 67 6.4 11.3 0.00 0.00 0.00 36 936.1
20260507011038 10 55 9.7 19.3 0.00 0.00 0.00 33 936.0
20260507010027 11 42 6.4 12.9 0.00 0.00 0.00 27 936.1
20260507005021 11 341 9.7 16.1 0.00 0.00 0.00 26 936.0
20260507004044 11 352 9.7 12.9 0.00 0.00 0.00 26 936.2
20260507003038 12 3 11.3 17.7 0.00 0.00 0.00 27 936.2
20260507002029 11 69 6.4 11.3 0.00 0.00 0.00 28 936.2
20260507001042 12 1 14.5 22.5 0.00 0.00 0.00 28 936.3
20260507000045 12 284 11.3 17.7 0.00 0.00 0.00 27 936.4
20260506235039 12 340 14.5 25.7 0.00 0.00 0.00 27 936.5
20260506234032 12 284 8.0 16.1 0.00 0.00 0.00 29 936.6
20260506233024 12 276 11.3 22.5 0.00 0.00 0.00 31 936.7
20260506232047 11 352 11.3 19.3 0.00 0.00 0.00 28 936.8
20260506231040 11 355 12.9 19.3 0.00 0.00 0.00 30 936.8
20260506230033 12 6 17.7 25.7 0.00 0.00 0.00 30 936.8
20260506225025 11 315 12.9 22.5 0.00 0.00 0.00 31 936.9
20260506224018 11 351 11.3 22.5 0.00 0.00 0.00 30 937.1
20260506223102 11 310 16.1 30.6 0.00 0.00 0.00 34 937.2
20260506222035 11 297 14.5 25.7 0.00 0.00 0.00 34 937.2
20260506221026 11 274 12.9 22.5 0.00 0.00 0.00 36 937.4
20260506220019 10 305 9.7 19.3 0.00 0.00 0.00 33 937.5
20260506215043 11 294 17.7 30.6 0.00 0.00 0.00 35 937.6
20260506214036 11 301 17.7 30.6 0.00 0.00 0.00 32 937.8
20260506213048 11 279 12.9 22.5 0.00 0.00 0.00 35 937.9
20260506212021 11 247 9.7 19.3 0.00 0.00 0.00 34 938.1
20260506211044 10 283 14.5 29.0 0.00 0.00 0.00 37 938.4
20260506210038 10 357 4.8 11.3 0.00 0.00 0.00 32 938.4
20260506205031 10 336 12.9 19.3 0.00 0.00 0.00 35 938.7
20260506204022 10 249 8.0 12.9 0.00 0.00 0.00 33 938.7
20260506203047 10 298 16.1 24.1 0.00 0.00 0.00 35 938.8
20260506202039 10 326 11.3 24.1 0.00 0.00 0.00 34 938.9
20260506201032 10 301 19.3 29.0 0.00 0.00 0.00 37 939.1
20260506200023 10 277 11.3 24.1 0.00 0.00 0.00 36 939.1
20260506195017 10 291 19.3 29.0 0.00 0.00 0.00 37 939.4
20260506194100 9 288 14.5 22.5 0.00 0.00 0.00 38 939.4
20260506193034 9 356 14.5 22.5 0.00 0.00 0.00 36 939.5
20260506192025 10 299 14.5 24.1 0.00 0.00 0.00 37 939.7
20260506191018 9 290 17.7 30.6 0.00 0.00 0.00 37 939.9
20260506185035 9 290 14.5 22.5 0.00 0.00 0.00 38 940.0
20260506184028 8 289 17.7 33.8 0.00 0.00 0.00 38 940.2
20260506183020 9 282 17.7 24.1 0.00 0.00 0.00 40 940.4
20260506182045 8 302 11.3 22.5 0.00 0.00 0.00 37 940.6
20260506181036 8 308 17.7 29.0 0.00 0.00 0.00 39 940.7
20260506180030 8 295 19.3 29.0 0.00 0.00 0.00 43 940.7
20260506175021 8 298 17.7 30.6 0.00 0.00 0.00 41 940.9
20260506174046 8 317 16.1 29.0 0.00 0.00 0.00 39 941.0
20260506173038 8 327 20.9 33.8 0.00 0.00 0.00 40 941.0
20260506172051 8 323 17.7 35.4 0.00 0.00 0.00 41 941.2
20260506171022 7 312 17.7 30.6 0.00 0.00 0.00 40 941.3
20260506170048 7 283 16.1 35.4 0.00 0.00 0.00 42 941.5
20260506165039 7 279 14.5 29.0 0.00 0.00 0.00 44 941.5
20260506164032 7 326 16.1 24.1 0.00 0.00 0.00 42 941.7
20260506163025 6 320 17.7 30.6 0.00 0.00 0.00 44 941.9
20260506162017 6 323 19.3 25.7 0.00 0.00 0.00 44 941.9
20260506161043 6 325 16.1 24.1 0.00 0.00 0.00 45 941.9
20260506150542 5 320 16.1 25.7 0.00 0.00 0.00 48 942.3
20260506145552 4 282 8.0 16.1 0.00 0.00 0.00 54 942.3
20260506144525 3 226 8.0 12.9 0.00 0.00 0.00 57 942.3
20260506143516 2 244 8.0 11.3 0.00 0.00 0.00 61 942.4
20260506142602 1 246 8.0 16.1 0.00 0.00 0.00 63 942.4
20260506141535 1 255 9.7 12.9 0.00 0.00 0.00 65 942.5
20260506140607 0 261 8.0 12.9 0.00 0.00 0.00 67 942.6
20260506135520 0 268 8.0 12.9 0.00 0.00 0.00 69 942.5
20260506134543 0 263 9.7 12.9 0.00 0.00 0.00 71 942.6
20260506133539 -1 289 8.0 12.9 0.00 0.00 0.00 71 942.6
20260506132529 -1 294 9.7 16.1 0.00 0.00 0.00 73 942.6
20260506131521 -1 282 11.3 17.7 0.00 0.00 0.00 74 942.5
20260506130605 -2 292 9.7 12.9 0.00 0.00 0.00 75 942.5
20260506125540 -2 282 11.3 17.7 0.00 0.00 0.00 73 942.5
20260506124530 -2 297 9.7 16.1 0.00 0.00 0.00 73 942.3
20260506123543 -2 285 11.3 17.7 0.00 0.00 0.00 74 942.3
20260506122546 -3 287 11.3 17.7 0.00 0.00 0.00 75 942.3
20260506121539 -3 304 6.4 8.0 0.00 0.00 0.00 74 942.2
20260506120537 -3 275 8.0 11.3 0.00 0.00 0.00 74 942.1
20260506115524 -3 312 9.7 16.1 0.00 0.00 0.00 72 942.0